Weather History for Kendall, FL

Change the Weather History Date:

Monday, October 28, 2013

  Actual Average Record
Temperature  
Mean Temperature 76 °F -  
Max Temperature 86 °F 84 °F 88 °F (2002)
Min Temperature 66 °F 63 °F 52 °F (2008)
Cooling Degree Days 11    
Growing Degree Days 26 (Base 50)    
Moisture  
Dew Point 64 °F    
Average Humidity 69    
Maximum Humidity 90    
Minimum Humidity 49    
Precipitation  
Precipitation 0.00 in - - ()
Sea Level Pressure  
Sea Level Pressure 30.10 in    
Wind  
Wind Speed 6 mph (ENE)    
Max Wind Speed 15 mph    
Max Gust Speed 21 mph    
Visibility 10 miles    
Events      
Averages and records for this station are not official NWS values.
T = Trace of Precipitation, MM = Missing Value Source: NWS Daily Summary

Daily Weather History Graph

Daily Weather History Graph

Search for Another Location

Airport:

Trip Planner

Search our weather history database for the weather conditions in past years. The results will help you decide how hot, cold, wet, or windy it might be!

Date:

Astronomy

Oct. 28, 2013 Rise Set
Actual Time 7:27 AM EDT 6:42 PM EDT
Civil Twilight 7:04 AM EDT 7:06 PM EDT
Nautical Twilight 6:37 AM EDT 7:33 PM EDT
Astronomical Twilight 6:10 AM EDT 8:00 PM EDT
Moon 1:53 AM EDT (10/28) 2:52 PM EDT (10/28)
Length of Visible Light 12h 02m
Length of Day
11h 15m
Waning Crescent, 34% of the Moon is Illuminated
Oct 28
Waning Crescent
Nov 3
New
Nov 10
First Quarter
Nov 17
Full
Nov 25
Last Quarter

Hourly Weather History & Observations

Time (EDT) Temp. Heat Index Dew Point Humidity Pressure Visibility Wind Dir Wind Speed Gust Speed Precip Events Conditions
12:53 AM 68.0 °F - 62.1 °F 81% 30.09 in 10.0 mi NE 5.8 mph - N/A   Clear
1:53 AM 70.0 °F - 63.0 °F 78% 30.08 in 10.0 mi ENE 3.5 mph - N/A   Clear
2:53 AM 66.9 °F - 62.1 °F 84% 30.06 in 10.0 mi NE 3.5 mph - N/A   Clear
3:53 AM 68.0 °F - 62.1 °F 81% 30.06 in 10.0 mi Calm Calm - N/A   Clear
4:53 AM 66.9 °F - 62.1 °F 84% 30.05 in 10.0 mi Calm Calm - N/A   Clear
5:53 AM 66.0 °F - 61.0 °F 84% 30.06 in 10.0 mi NNE 3.5 mph - N/A   Clear
6:53 AM 66.0 °F - 63.0 °F 90% 30.08 in 10.0 mi Calm Calm - N/A   Clear
7:53 AM 66.0 °F - 63.0 °F 90% 30.09 in 10.0 mi NNE 4.6 mph - N/A   Clear
8:53 AM 73.9 °F - 66.0 °F 76% 30.11 in 10.0 mi NNE 5.8 mph - N/A   Clear
9:53 AM 80.1 °F 82.1 °F 66.0 °F 62% 30.12 in 10.0 mi ENE 6.9 mph - N/A   Clear
10:53 AM 82.0 °F 84.1 °F 66.0 °F 58% 30.14 in 10.0 mi East 12.7 mph - N/A   Clear
11:53 AM 84.0 °F 86.3 °F 66.0 °F 55% 30.13 in 10.0 mi East 15.0 mph - N/A   Scattered Clouds
12:53 PM 84.0 °F 86.3 °F 66.0 °F 55% 30.12 in 10.0 mi ENE 9.2 mph 17.3 mph N/A   Scattered Clouds
1:53 PM 86.0 °F 88.8 °F 66.9 °F 53% 30.09 in 10.0 mi East 15.0 mph 20.7 mph N/A   Scattered Clouds
2:53 PM 84.9 °F 86.6 °F 64.9 °F 51% 30.07 in 10.0 mi East 12.7 mph 20.7 mph N/A   Partly Cloudy
3:53 PM 84.0 °F 84.9 °F 63.0 °F 49% 30.07 in 10.0 mi ENE 13.8 mph - N/A   Clear
4:53 PM 82.9 °F 85.0 °F 66.0 °F 56% 30.08 in 10.0 mi East 13.8 mph - N/A   Clear
5:53 PM 81.0 °F 81.6 °F 60.1 °F 49% 30.09 in 10.0 mi ENE 10.4 mph - N/A   Clear
6:53 PM 78.1 °F - 60.1 °F 54% 30.11 in 10.0 mi ENE 8.1 mph - N/A   Clear
7:53 PM 75.9 °F - 62.1 °F 62% 30.11 in 10.0 mi ENE 5.8 mph - N/A   Clear
8:53 PM 75.9 °F - 63.0 °F 64% 30.13 in 10.0 mi NE 5.8 mph - N/A   Clear
9:53 PM 73.9 °F - 64.0 °F 71% 30.14 in 10.0 mi NE 5.8 mph - N/A   Clear
10:53 PM 73.0 °F - 64.9 °F 76% 30.14 in 10.0 mi NE 4.6 mph - N/A   Clear
11:53 PM 70.0 °F - 64.0 °F 81% 30.14 in 10.0 mi NE 3.5 mph - N/A   Clear